ONEWEB-0146 (47292 NORAD) Tracking and Keplerian Element Data

This shows tracking and keplerian element data for the satellite.

Feedback or suggestion? Click here.




ElementValue
Catalog47292
NameONEWEB-0146
Epoch Orbit437
Epoch Day16.16667824
Epoch Year2021
RAAN29.577
Inclination87.4182
Eccentricity0.001259
Argument of Perigee160.8672
Mean Anonmoly84.7775
Mean Motion15.14125816
Decay Rate-0.01514772
L11 47292U 20100AL 21016.16667824 -.01514772 00000-0 -91035-1 0 9995
L22 47292 87.4182 29.5770 0012590 160.8672 84.7775 15.14125816 4379

Live tracking and technical data element details for ONEWEB-0146 (NORAD 47292). ONEWEB-0146 can be tracked NOW for your location showing map with azimuth and elevation plus other details from your city location.

Track the satellite on the map from your city or location and see movement details for azimuth, elevation, latitude, longitude, range, height, and movement on the map or in text.







IsCatalogInMostPopularTable: catalog: 47292, numindb: 10
Update: records affected: 1



GetName: 47292 ONEWEB-0146

Hit Count: updated at: Sun, 17 Jan 2021 09:50:51 GMT